Terug naar catalogus

METEOR 2-10

ActiefWeerPO
NORAD 14452·PAYLOAD·🇷🇺 Russia

Gelanceerd Oct 28, 1983 vanaf Plesetsk Cosmodrome

Loading…

Volgende Passages (komende 24 uur)

TLE

VersSource: Space-Track

Epoch: Sep 14, 2026, 11:07 UTC

1 14452U 83109A   26257.46335123  .00000085  00000-0  28785-4 0  9993
2 14452  81.1576 266.7657 0089034 303.7615  55.5106 14.27294302230151

Volg METEOR 2-10 in realtime met AllMySat

Download on the App Store